{"data":{"norad_id":63273,"intl_designator":"2025-053J","name":"STARLINK-11621 [DTC]","alt_names":[],"object_type":"PAYLOAD","status":"ACTIVE","operator":null,"country":"US","launch_date":"2025-03-15","launch_site_code":"AFETR","launch_vehicle":null,"mission":null,"orbit_class":"UNKNOWN","rcs_meters":null,"size_class":null,"mass_kg":null,"dimensions":null,"purposes":["comms"],"wikipedia_slug":null,"has_3d_model":false,"image_url":null,"decayed_at":null,"tle_current":{"epoch":"2026-09-20T18:14:38.736384Z","epoch_age_seconds":136338,"freshness":"FRESH","line1":"1 63273U 25053J   26263.76017056  .00131668  00000+0  10121-2 0  9998","line2":"2 63273  43.0016  15.9963 0002179 285.0520  75.0107 15.70871395 88351","mean_motion":15.70871395,"eccentricity":0.0002179,"inclination_deg":43.0016,"raan_deg":15.9963,"arg_perigee_deg":285.052,"mean_anomaly_deg":75.0107,"bstar":0.0010121,"rev_number":8835,"period_min":91.66886637464,"perigee_km":354.9378735036,"apogee_km":357.87278705114,"semimajor_km":6734.5423302774,"source":"CELESTRAK","updated_at":"2026-09-21T09:00:34.963856Z"}}}